weather.gov     
National Weather Service

Terminal Aerodrome Forecast
NWS Homepage
This page is being discontinued on March 12, 2014.
The same data is available at this site. Please update your bookmarks.
Thank you, and we apologize for the inconvenience.
Please send an email to SR-SRH.Webmaster@noaa.gov with any concerns.


Current Version
Previous Version:    01  02  03  04  05  06  07  08  09  10  11  12  13  14  15  16  17  18  19  20  21  22  23  24  25  26  27  28  29  30  
   31  32  33  34  35  36  37  
[Printable]
796
FTUS46 KHNX 221730
TAFMER
TAF
KMER 221730Z 2218/2318 35008KT 2SM BR BKN005 OVC015
      TEMPO 2219/2222 4SM BR SCT005 BKN015
     FM222200 32005KT 4SM HZ SCT005 BKN015
     FM230600 VRB03KT 2SM BR OVC005
      TEMPO 2310/2314 1/2SM FG VV002=




U.S. Dept. of Commerce
NOAA National Weather Service
1325 East West Highway
Silver Spring, MD 20910
E-mail: w-nws.webmaster@noaa.gov
Page last modified: May 16, 2007
NATIONAL WEATHER SERVICE: for Safety, for Work, for Fun - FOR LIFE